WS Maaseik 1 Meer informatie WS Maaseik 1


WS Maaseik 2 Meer informatie WS Maaseik 2


Regen radar Meer informatie rain snow radar


Bezoek onze andere website:

Vorige versie
weerstation Maaseik


Bezoek ook eens deze sites:

Weerstation Geleen



Het weer levert geen direct gevaar op.    Er zijn geen waarschuwingen afgegeven.

15 daagse weersverwachting Oss (NL)

  • Overzicht
  • Per uur
  • 15 dagen
  • Extra
  • Vergelijk
  • Kaarten
  • Dagkaart
  • Meer »
  • Info
  • Statistieken
  • Directe link
    Temp 6h Neerslag Wind  
 06:09     21:19    Daglengte: 15:10 Vandaag
20:00
21°
0.3 mm
2
 06:11     21:17    Daglengte: 15:06 Morgen
02:00
17°
 
4
08:00
16°
2.5 mm
4
14:00
19°
6.2 mm
7
20:00
19°
0.8 mm
5
 06:12     21:16    Daglengte: 15:04 Zaterdag 07 Aug
02:00
15°
 
4
08:00
15°
 
3
14:00
21°
2.8 mm
4
20:00
18°
6.7 mm
4
 06:14     21:14    Daglengte: 15:00 Zondag 08 Aug
02:00
16°
6.1 mm
5
08:00
15°
6.1 mm
7
Locatie info
Region: Noord-Brabant
Latitude: 51.7682°N
Longitude: 5.5265°E
8 masl
Postcode: 5341 EG
Temp/Neerslag /Baro Onweer/Dauwpunt
    Temp Baro 1h Neerslag Dauwpunt Wind UV Bewolking  
 06:09     21:19    Daglengte: 15:10 Vandaag
15:00
22°
1007.5 hPa
24%
15.1°
2
Windvlaag: 4.4 m/s
72%
16:00
22°
1006.9 hPa
32%
16.5°
3
Windvlaag: 3.6 m/s
78%
17:00
22°
1006.5 hPa 0.3 mm
35%
15.1°
2
Windvlaag: 3.9 m/s
67%
18:00
21°
1006.2 hPa
25%
14.1°
2
Windvlaag: 4.5 m/s
68%
19:00
21°
1005.7 hPa
33%
13.9°
1
Windvlaag: 3.6 m/s
46%
20:00
21°
1005.3 hPa   12.9°
2
Windvlaag: 1.9 m/s
26%
21:00
19°
1005.1 hPa   13.8°
2
Windvlaag: 2.8 m/s
6%
22:00
18°
1005.1 hPa   14.1°
3
Windvlaag: 3.4 m/s
8%
23:00
17°
1004.6 hPa   14.3°
3
Windvlaag: 4.1 m/s
33%
 06:11     21:17    Daglengte: 15:06 Morgen
00:00
17°
1004.0 hPa
14%
14.6°
3
Windvlaag: 4.9 m/s
35%
01:00
17°
1003.3 hPa   14.5°
3
Windvlaag: 6 m/s
15%
02:00
17°
1002.9 hPa
33%
14.0°
4
Windvlaag: 7.3 m/s
74%
03:00
17°
1002.3 hPa
32%
13.9°
4
Windvlaag: 7.6 m/s
51%
04:00
17°
1001.8 hPa
18%
14.2°
4
Windvlaag: 7.8 m/s
86%
05:00
16°
1001.0 hPa 1.6 mm
78%
14.2°
4
Windvlaag: 8.4 m/s
86%
06:00
16°
1000.8 hPa 0.9 mm
78%
14.4°
4
Windvlaag: 7.8 m/s
84%
07:00
16°
1000.9 hPa
76%
15.0°
4
Windvlaag: 7.7 m/s
84%
08:00
16°
1000.9 hPa
81%
15.5°
4
Windvlaag: 7.5 m/s
66%
09:00
17°
1001.1 hPa 0.9 mm
82%
15.2°
5
Windvlaag: 7.7 m/s
70%
10:00
17°
1001.4 hPa 0.7 mm
82%
15.6°
5
Windvlaag: 7.5 m/s
71%
11:00
18°
1001.6 hPa 1.1 mm
82%
15.7°
6
Windvlaag: 7.9 m/s
49% warningclass
12:00
19°
1001.8 hPa 1.0 mm
82%
16.1°
6
Windvlaag: 8.7 m/s
62%
13:00
19°
1001.9 hPa 1.0 mm
82%
16.0°
6
Windvlaag: 8.8 m/s
45%
14:00
19°
1002.0 hPa 1.5 mm
82%
15.6°
7
Windvlaag: 10.3 m/s
61%
15:00
19°
1002.1 hPa 0.8 mm
82%
15.2°
7
Windvlaag: 10.6 m/s
21%
16:00
20°
1002.2 hPa
81%
16.0°
7
Windvlaag: 9.9 m/s
57%
17:00
19°
1002.6 hPa
74%
14.8°
7
Windvlaag: 9.4 m/s
40%
18:00
19°
1002.8 hPa
24%
14.2°
6
Windvlaag: 8.9 m/s
14%
19:00
19°
1003.2 hPa
14%
13.6°
6
Windvlaag: 7.2 m/s
12%
20:00
19°
1003.4 hPa
14%
13.1°
5
Windvlaag: 6.7 m/s
12%
21:00
18°
1003.9 hPa
16%
12.2°
4
Windvlaag: 6.4 m/s
6%
22:00
17°
1004.4 hPa
14%
11.9°
4
Windvlaag: 6.9 m/s
5%
23:00
16°
1004.6 hPa
14%
11.9°
4
Windvlaag: 7.5 m/s
6%
 06:12     21:16    Daglengte: 15:04 Zaterdag 07 Aug
00:00
16°
1004.6 hPa
14%
11.2°
4
Windvlaag: 7.6 m/s
7%
01:00
15°
1004.7 hPa
66%
11.1°
5
Windvlaag: 8.1 m/s
59%
02:00
15°
1004.7 hPa
76%
11.9°
4
Windvlaag: 8.1 m/s
60%
03:00
15°
1004.5 hPa
81%
12.3°
4
Windvlaag: 8.1 m/s
12%
04:00
15°
1004.5 hPa
82%
12.6°
4
Windvlaag: 7.9 m/s
16%
05:00
14°
1004.3 hPa
80%
12.7°
4
Windvlaag: 7.5 m/s
11%
06:00
14°
1004.1 hPa
75%
12.7°
4
Windvlaag: 7.8 m/s
26%
07:00
14°
1004.1 hPa
62%
12.6°
3
Windvlaag: 7.3 m/s
15%
08:00
15°
1004.1 hPa
19%
12.6°
3
Windvlaag: 5.2 m/s
17%
09:00
15°
1004.0 hPa
14%
12.7°
3
Windvlaag: 5.1 m/s
16%
10:00
16°
1003.8 hPa
14%
13.4°
3
Windvlaag: 4.9 m/s
16%
11:00
18°
1003.3 hPa 1.4 mm
97%
10.4°
3
Windvlaag: 3.2 m/s
51%
12:00
19°
1002.8 hPa
93%
10.0°
4
Windvlaag: 6 m/s
45%
13:00
21°
1002.2 hPa 1.4 mm
74%
9.9°
5
Windvlaag: 7.6 m/s
70%
14:00
21°
1001.7 hPa
89%
10.2°
4
Windvlaag: 7.3 m/s
56%
15:00
21°
1001.2 hPa 1.4 mm
85%
10.3°
4
Windvlaag: 6.9 m/s
60%
16:00
21°
1001.1 hPa 1.1 mm
100%
10.5°
4
Windvlaag: 7.8 m/s
77%
17:00
21°
1001.0 hPa 1.2 mm
100%
9.5°
4
Windvlaag: 7.5 m/s
69%
18:00
21°
1000.5 hPa
99%
10.3°
3
Windvlaag: 7.7 m/s
64%
19:00
20°
1001.0 hPa 2.0 mm
100%
10.9°
4
Windvlaag: 10.1 m/s
76%
20:00
18°
1001.1 hPa 1.1 mm
100%
10.6°
4
Windvlaag: 6.2 m/s
87%
21:00
17°
1000.8 hPa 1.0 mm
98%
12.4°
3
Windvlaag: 8.3 m/s
88%
22:00
16°
1001.2 hPa 1.8 mm
85%
12.5°
3
Windvlaag: 8.1 m/s
74%
23:00
17°
1001.4 hPa 1.3 mm
100%
10.7°
4
Windvlaag: 7.5 m/s
84% warningclass
 06:14     21:14    Daglengte: 15:00 Zondag 08 Aug
00:00
16°
1001.5 hPa 1.9 mm
100%
12.2°
4
Windvlaag: 8 m/s
22%
01:00
16°
1001.6 hPa
82%
12.3°
4
Windvlaag: 8.9 m/s
51%
02:00
16°
1001.7 hPa
21%
12.4°
5
Windvlaag: 10.1 m/s
80%
03:00
15°
1001.6 hPa 2.0 mm
22%
12.5°
6
Windvlaag: 10.6 m/s
93%
04:00
15°
1001.7 hPa 1.9 mm
85%
13.4°
6
Windvlaag: 10.3 m/s
100%
05:00
15°
1001.6 hPa 1.6 mm
100%
13.2°
6
Windvlaag: 9.6 m/s
97%
06:00
15°
1001.8 hPa 1.6 mm
100%
12.9°
6
Windvlaag: 9.4 m/s
96%
07:00
15°
1002.2 hPa
49%
13.0°
7
Windvlaag: 8.8 m/s
97%
08:00
15°
1002.9 hPa
79%
13.5°
7
Windvlaag: 11 m/s
96%
09:00
16°
1003.8 hPa
89%
-36.1°
7
Windvlaag: 0 m/s
88%
Temp/Neerslag /Baro Onweer/Dauwpunt
    Temp Baro Neerslag Dauwpunt Wind Bewolking  
 06:09     21:19    Daglengte: 15:10 Vandaag
17:00
22°
1006.5 hPa 0.3 mm 15.1°
2
67%
20:00
21°
1005.3 hPa   12.9°
2
26%
23:00
17°
1004.6 hPa   14.3°
3
33%
 06:11     21:17    Daglengte: 15:06 Morgen
02:00
17°
1002.9 hPa   14.0°
4
74%
05:00
16°
1001.0 hPa 1.6 mm 14.2°
4
86%
08:00
16°
1000.9 hPa 0.9 mm 15.5°
4
66%
11:00
18°
1001.6 hPa 2.7 mm 15.7°
6
49% warningclass
14:00
19°
1002.0 hPa 3.5 mm 15.6°
7
61%
17:00
19°
1002.6 hPa 0.8 mm 14.8°
7
40%
20:00
19°
1003.4 hPa   13.1°
5
12%
23:00
16°
1004.6 hPa   11.9°
4
6%
 06:12     21:16    Daglengte: 15:04 Zaterdag 07 Aug
02:00
15°
1004.7 hPa   11.9°
4
60%
05:00
14°
1004.3 hPa   12.7°
4
11%
08:00
15°
1004.1 hPa   12.6°
3
17%
11:00
18°
1003.3 hPa 1.4 mm 10.4°
3
51%
14:00
21°
1001.7 hPa 1.4 mm 10.2°
4
56%
17:00
21°
1001.0 hPa 3.7 mm 9.5°
4
69%
20:00
18°
1001.1 hPa 3.1 mm 10.6°
4
87%
23:00
17°
1001.4 hPa 4.2 mm 10.7°
4
84% warningclass
 06:14     21:14    Daglengte: 15:00 Zondag 08 Aug
02:00
16°
1001.7 hPa 1.9 mm 12.4°
5
80%
05:00
15°
1001.6 hPa 5.5 mm 13.2°
6
97%
08:00
15°
1002.9 hPa 4.7 mm 13.5°
7
96%
11:00
17°
1005.3 hPa   15.8°
7
0%
14:00
20°
1006.7 hPa 3.1 mm 16.6°
8
11%
17:00
19°
1009.5 hPa 16.4 mm 14.0°
8
1%
20:00
18°
1011.3 hPa 16.5 mm 11.5°
6
0%
23:00
15°
1013.1 hPa 16.5 mm 9.7°
6
0%
 06:16     21:12    Daglengte: 14:56 Maandag 09 Aug
02:00
14°
1013.5 hPa 16.5 mm 10.2°
5
0%
05:00
15°
1013.3 hPa 16.5 mm 10.8°
6
1%
08:00
14°
1013.8 hPa 16.6 mm 12.0°
6
1%
11:00
17°
1014.8 hPa 17.1 mm 13.4°
8
1%
14:00
19°
1016.0 hPa 18.3 mm 14.3°
7
1%
17:00
20°
1016.7 hPa 19.3 mm 14.6°
6
1%
20:00
17°
1017.7 hPa 20.3 mm 14.2°
4
1%
23:00
14°
1019.0 hPa 20.3 mm 12.2°
3
0%
 06:17     21:10    Daglengte: 14:53 Dinsdag 10 Aug
02:00
13°
1019.6 hPa 20.3 mm 12.3°
4
0%
05:00
13°
1019.4 hPa 20.3 mm 12.1°
3
1%
08:00
14°
1020.6 hPa 20.3 mm 13.0°
3
1%
11:00
20°
1021.1 hPa 20.4 mm 13.8°
3
1%
14:00
22°
1020.7 hPa 20.4 mm 11.7°
3
1%
17:00
21°
1020.4 hPa 20.4 mm 14.1°
2
1%
20:00
19°
1020.2 hPa 20.4 mm 14.2°
3
1%
23:00
15°
1020.7 hPa 20.4 mm 11.3°
1
1%
 06:19     21:08    Daglengte: 14:49 Woensdag 11 Aug
02:00
14°
1020.3 hPa 20.4 mm 11.0°
0
1%
05:00
13°
1019.2 hPa 20.4 mm 10.5°
1
0%
08:00
15°
1019.0 hPa 20.4 mm 12.0°
1
0%
11:00
20°
1018.5 hPa 20.4 mm 13.7°
1
0%
14:00
23°
1017.2 hPa 20.4 mm 13.8°
1
0%
17:00
24°
1015.9 hPa 20.4 mm 13.6°
1
1%
20:00
21°
1015.3 hPa 20.4 mm 14.5°
1
1%
23:00
20°
1014.8 hPa 20.4 mm 12.9°
2
1%
 06:20     21:06    Daglengte: 14:46 Donderdag 12 Aug
02:00
19°
1014.0 hPa 20.4 mm 12.9°
3
1%
05:00
16°
1013.6 hPa 23.7 mm 15.4°
2
1%
08:00
16°
1013.5 hPa 33.3 mm 15.7°
2
1%
11:00
18°
1014.8 hPa 34.2 mm 15.5°
3
1%
14:00
20°
1015.4 hPa 70.4 mm 16.6°
5
1%
20:00
18°
1018.2 hPa 80.2 mm 16.1°
5
1%
 06:22     21:04    Daglengte: 14:42 Vrijdag 13 Aug
02:00
14°
1021.6 hPa 81.2 mm 13.2°
3
0%
08:00
15°
1023.1 hPa 81.2 mm 14.3°
3
0%
14:00
22°
1023.7 hPa 81.2 mm 12.9°
4
0%
20:00
19°
1023.5 hPa 81.2 mm 14.0°
3
0%
 06:24     21:02    Daglengte: 14:38 Zaterdag 14 Aug
02:00
13°
1024.1 hPa 81.2 mm 10.9°
1
0%
08:00
14°
1023.5 hPa 81.2 mm 11.6°
2
0%
14:00
23°
1022.1 hPa 81.2 mm 14.4°
3
0%
20:00
21°
1020.7 hPa 81.2 mm 15.9°
2
0%
 06:25     21:00    Daglengte: 14:35 Zondag 15 Aug
02:00
15°
1020.4 hPa 81.2 mm 12.3°
1
0%
08:00
17°
1018.9 hPa 81.2 mm 13.8°
2
0%
14:00
21°
1013.7 hPa 0.4 mm 13.0°
4
62%
20:00
19°
1013.3 hPa 0.9 mm 13.8°
2
62%
 06:27     20:58    Daglengte: 14:31 Maandag 16 Aug
02:00
15°
1013.6 hPa 0.4 mm 12.3°
2
49%
08:00
15°
1013.2 hPa 0.4 mm 12.5°
3
55%
14:00
21°
1014.0 hPa 0.6 mm 13.4°
4
61%
20:00
19°
1014.7 hPa 0.9 mm 13.6°
3
59%
 06:28     20:56    Daglengte: 14:28 Dinsdag 17 Aug
02:00
14°
1015.6 hPa 0.6 mm 11.7°
2
52%
08:00
15°
1015.7 hPa 0.2 mm 12.7°
3
51%
14:00
21°
1016.0 hPa   13.6°
4
61%
20:00
19°
1015.9 hPa 0.8 mm 13.8°
2
58%
 06:30     20:54    Daglengte: 14:24 Woensdag 18 Aug
02:00
15°
1016.2 hPa 0.5 mm 12.6°
2
47%
08:00
16°
1015.8 hPa 0.6 mm 13.5°
3
59%
14:00
22°
1015.7 hPa 0.8 mm 14.1°
3
57%
20:00
19°
1015.5 hPa 0.1 mm 14.2°
2
55%
 06:32     20:52    Daglengte: 14:20 Donderdag 19 Aug
02:00
15°
1016.1 hPa 1.4 mm 12.6°
2
49%
08:00
15°
1015.6 hPa 1.5 mm 13.3°
2
54%
14:00
21°
1015.2 hPa 1.1 mm 14.1°
3
59%
20:00
19°
1015.0 hPa 1.4 mm 14.1°
2
55%
 06:33     20:50    Daglengte: 14:17 Vrijdag 20 Aug
02:00
15°
1015.3 hPa 0.2 mm 12.2°
1
46%
08:00
15°
1015.0 hPa 0.6 mm 13.0°
2
50%
14:00
21°
1014.9 hPa 0.8 mm 13.6°
3
63%
  CAPE Lifted Index Hail Supercell Tornado SRH 3km CL BTM PRES CL TOP PRES Swiss DWD icon SMHI TS
 06:09     21:19    Daglengte: 15:10 Vandaag
15:00 194 J/kg 0.3 K 0 % 0 % 0 % 0 m²/s² 0 0 1.53 3
16:00 184 J/kg 0.2 K 0 % 0 % 0 % 0 m²/s² 0 0 1.49 3
17:00 165 J/kg 0.3 K 0 % 0 % 0 % 0 m²/s² 0 0 1.68 3
18:00 224 J/kg -0.2 K 0 % 0 % 0 % 0 m²/s² 0 0 1.36 3
19:00 176 J/kg 0.2 K 0 % 0 % 0 % 0 m²/s² 0 0 2.18 3
20:00 207 J/kg 0.0 K 0 % 0 % 0 % 0 m²/s² 0 0 2.91 3
21:00 174 J/kg 0.0 K 0 % 0 % 0 % 0 m²/s² 0 0 2.91 1
22:00 116 J/kg 0.3 K 0 % 0 % 0 % 0 m²/s² 0 0 2.7 1
23:00 81 J/kg 0.4 K 0 % 0 % 0 % 0 m²/s² 0 0 2.2 2
 06:11     21:17    Daglengte: 15:06 Morgen
00:00 101 J/kg 0.1 K 0 % 0 % 0 % 0 m²/s² 0 0 1.78 3
01:00 108 J/kg -0.1 K 0 % 0 % 0 % 0 m²/s² 0 0 1.52 1
02:00 103 J/kg 0.2 K 0 % 0 % 0 % 0 m²/s² 0 0 1.04 3
03:00 18 J/kg 0.2 K 0 % 0 % 0 % 0 m²/s² 0 0 0.86 3
04:00 4 J/kg 0.6 K 0 % 0 % 0 % 0 m²/s² 0 0 0.78 3
05:00 0 J/kg 0.1 K 0 % 0 % 0 % 0 m²/s² 0 0 0.31 61
06:00 9 J/kg -1.4 K 0 % 0 % 0 % 0 m²/s² 0 0 -1.01 80
07:00 49 J/kg -1.8 K 0 % 0 % 0 % 0 m²/s² 0 0 -1.62 3
08:00 208 J/kg -1.4 K 0 % 0 % 0 % 0 m²/s² 0 0 -1.4 3
09:00 255 J/kg -0.7 K 0 % 0 % 0 % 0 m²/s² 0 0 0.44 3
10:00 202 J/kg -0.3 K 0 % 0 % 0 % 0 m²/s² 0 0 1.83 80
11:00 368 J/kg -0.8 K 0 % 0 % 0 % 0 m²/s² 0 0 1.45 95
12:00 235 J/kg -0.3 K 0 % 0 % 0 % 0 m²/s² 0 0 1.74 80
13:00 212 J/kg 0.0 K 0 % 0 % 0 % 0 m²/s² 0 0 1.44 80
14:00 204 J/kg -0.2 K 0 % 0 % 0 % 0 m²/s² 0 0 1.36 80
15:00 226 J/kg -0.3 K 0 % 0 % 0 % 0 m²/s² 0 0 0.69 80
16:00 467 J/kg -1.5 K 0 % 0 % 0 % 0 m²/s² 0 0 0.48 2
17:00 650 J/kg -2.5 K 0 % 0 % 0 % 0 m²/s² 0 0 0.2 2
18:00 432 J/kg -1.8 K 0 % 0 % 0 % 0 m²/s² 0 0 1.35 2
19:00 142 J/kg -0.5 K 0 % 0 % 0 % 0 m²/s² 0 0 2.74 2
20:00 154 J/kg -0.4 K 0 % 0 % 0 % 0 m²/s² 0 0 2.57 2
21:00 7 J/kg 0.6 K 0 % 0 % 0 % 0 m²/s² 0 0 4.2 2
22:00 0 J/kg 1.7 K 0 % 0 % 0 % 0 m²/s² 0 0 5.66 2
23:00 0 J/kg 1.6 K 0 % 0 % 0 % 0 m²/s² 0 0 5.65 1
 06:12     21:16    Daglengte: 15:04 Zaterdag 07 Aug
00:00 0 J/kg 2.7 K 0 % 0 % 0 % 0 m²/s² 0 0 6.87 1
01:00 0 J/kg 3.4 K 0 % 0 % 0 % 0 m²/s² 0 0 7.24 3
02:00 0 J/kg 4.2 K 0 % 0 % 0 % 0 m²/s² 0 0 7.68 61
03:00 0 J/kg 4.7 K 0 % 0 % 0 % 0 m²/s² 0 0 8.18 80
04:00 0 J/kg 5.0 K 0 % 0 % 0 % 0 m²/s² 0 0 8.3 80
05:00 0 J/kg 4.3 K 0 % 0 % 0 % 0 m²/s² 0 0 7.42 2
06:00 0 J/kg 4.1 K 0 % 0 % 0 % 0 m²/s² 0 0 7.22 80
07:00 0 J/kg 3.3 K 0 % 0 % 0 % 0 m²/s² 0 0 6.24 2
08:00 0 J/kg 2.7 K 0 % 0 % 0 % 0 m²/s² 0 0 5.34 1
09:00 25 J/kg 1.7 K 0 % 0 % 0 % 0 m²/s² 0 0 4.04 1
10:00 67 J/kg 0.8 K 0 % 0 % 0 % 0 m²/s² 0 0 2.75 2
11:00 123 J/kg 0.3 K 0 % 0 % 0 % 0 m²/s² 0 0 1.95 2
12:00 137 J/kg 0.5 K 0 % 0 % 0 % 0 m²/s² 0 0 2.09 1
13:00 166 J/kg 0.3 K 0 % 0 % 0 % 0 m²/s² 0 0 1.89 2
14:00 162 J/kg 0.0 K 0 % 0 % 0 % 0 m²/s² 0 0 2.01 2
15:00 199 J/kg -0.4 K 0 % 0 % 0 % 0 m²/s² 0 0 1.55 3
16:00 192 J/kg -0.3 K 0 % 0 % 0 % 0 m²/s² 0 0 1.59 80
17:00 226 J/kg -0.5 K 0 % 0 % 0 % 0 m²/s² 0 0 1.66 80
18:00 272 J/kg -0.7 K 0 % 0 % 0 % 0 m²/s² 0 0 1.46 3
19:00 451 J/kg -1.5 K 0 % 0 % 0 % 0 m²/s² 0 0 0.45 3
20:00 490 J/kg -1.8 K 0 % 0 % 0 % 0 m²/s² 0 0 0.42 80
21:00 553 J/kg -1.9 K 0 % 0 % 0 % 0 m²/s² 0 0 -0.13 80
22:00 496 J/kg -2.0 K 0 % 0 % 0 % 0 m²/s² 0 0 -0.89 3
23:00 499 J/kg -2.0 K 0 % 0 % 0 % 0 m²/s² 0 0 -0.83 95
 06:14     21:14    Daglengte: 15:00 Zondag 08 Aug
00:00 395 J/kg -1.5 K 0 % 0 % 0 % 0 m²/s² 0 0 -0.87 80
01:00 189 J/kg -1.9 K 0 % 0 % 0 % 0 m²/s² 0 0 -1.66 2
02:00 208 J/kg -1.5 K 0 % 0 % 0 % 0 m²/s² 0 0 -1.2 3
03:00 27 J/kg 0.4 K 0 % 0 % 0 % 0 m²/s² 0 0 1.45 3
04:00 103 J/kg -1.0 K 0 % 0 % 0 % 0 m²/s² 0 0 -0.58 3
05:00 0 J/kg 0.8 K 0 % 0 % 0 % 0 m²/s² 0 0 1.52 61
06:00 0 J/kg 0.0 K 0 % 0 % 0 % 0 m²/s² 0 0 0.69 61
07:00 0 J/kg -1.1 K 0 % 0 % 0 % 0 m²/s² 0 0 -0.38 3
08:00 240 J/kg -1.2 K 0 % 0 % 0 % 0 m²/s² 0 0 -0.39 3
09:00 0 J/kg 0.0 K 0 % 0 % 0 % 0 m²/s² 0 0 13.83 3
Temp Baro Wind Neerslag
  EWN Forecast EWN WRFDA DWD ICON FMI HIRLAM MET Norway GFS
 06:09     21:19    Daglengte: 15:10 Vandaag
17:00 21.8° 1006.5 hPa 2.2 m/s 0.3 mm 23.2° 1005.6 hPa 2.5 m/s 0.0 mm 21.2° 1006.6 hPa 2.2 m/s -1.5 mm 21.6° 1006.3 hPa 2.1 m/s 0.0 mm 22.2° 1006.2 hPa 2.6 m/s
20:00 20.8° 1005.3 hPa 1.7 m/s 0.0 mm 22.4° 1004.5 hPa 2.1 m/s 0.0 mm 20.7° 1005.3 hPa 1.9 m/s 0.0 mm 21.2° 1005.4 hPa 0.4 m/s 0.0 mm 19.8° 1004.7 hPa 2.9 m/s
23:00 17.4° 1004.6 hPa 3.1 m/s 0.0 mm 18.1° 1003.5 hPa 3.9 m/s 0.0 mm 17.2° 1005.1 hPa 3.1 m/s 0.0 mm 18.6° 1004.7 hPa 2.4 m/s 0.0 mm 15.8° 1004.1 hPa 3.3 m/s
 06:11     21:17    Daglengte: 15:06 Morgen
02:00 16.8° 1002.9 hPa 3.8 m/s 0.0 mm 16.6° 1002.4 hPa 3.8 m/s 0.0 mm 16.7° 1003.0 hPa 3.8 m/s 0.0 mm 17.6° 1002.7 hPa 2.9 m/s 0.0 mm 16.0° 1002.7 hPa 4.1 m/s
05:00 16.2° 1001.0 hPa 4.0 m/s 1.6 mm 16.2° 1000.5 hPa 3.5 m/s 0.1 mm 15.9° 1001.1 hPa 3.9 m/s 2.1 mm 16.8° 1000.4 hPa 3.6 m/s 0.0 mm 15.7° 1001.5 hPa 5.4 m/s
08:00 16.4° 1000.9 hPa 4.2 m/s 0.9 mm 16.5° 1000.0 hPa 5.0 m/s 1.3 mm 16.4° 1001.3 hPa 3.9 m/s 1.3 mm 16.5° 1000.0 hPa 4.0 m/s 0.0 mm 16.0° 1001.5 hPa 5.7 m/s
11:00 18.0° 1001.6 hPa 5.7 m/s 2.7 mm 19.5° 1000.8 hPa 6.3 m/s 7.3 mm 18.0° 1002.0 hPa 5.0 m/s 1.4 mm 17.8° 1000.5 hPa 5.7 m/s 0.0 mm 18.0° 1002.3 hPa 7.0 m/s
14:00 19.2° 1002.0 hPa 6.6 m/s 3.5 mm 20.9° 1001.1 hPa 7.8 m/s 7.8 mm 19.3° 1002.5 hPa 6.3 m/s 1.5 mm 18.1° 1000.7 hPa 6.0 m/s 0.0 mm 18.3° 1002.5 hPa 7.9 m/s
17:00 19.1° 1002.6 hPa 6.6 m/s 0.8 mm 20.7° 1000.8 hPa 7.2 m/s 9.0 mm 20.9° 1003.0 hPa 6.0 m/s 0.5 mm 18.1° 1001.7 hPa 6.2 m/s 0.0 mm 20.2° 1002.9 hPa 7.1 m/s
20:00 18.9° 1003.4 hPa 4.9 m/s 0.0 mm 20.7° 1001.6 hPa 6.4 m/s 10.5 mm 20.0° 1003.7 hPa 3.7 m/s 0.0 mm 17.7° 1002.8 hPa 4.9 m/s 0.0 mm 18.4° 1003.6 hPa 5.1 m/s
23:00 16.3° 1004.6 hPa 4.3 m/s 0.0 mm 14.9° 1003.2 hPa 3.7 m/s 10.5 mm 16.5° 1004.7 hPa 2.6 m/s 0.0 mm 16.6° 1004.5 hPa 4.6 m/s 0.0 mm 15.0° 1004.9 hPa 4.6 m/s
 06:12     21:16    Daglengte: 15:04 Zaterdag 07 Aug
02:00 15.4° 1004.7 hPa 4.2 m/s 0.0 mm 13.6° 1002.6 hPa 4.6 m/s 10.5 mm 15.6° 1005.1 hPa 3.2 m/s 0.2 mm 15.8° 1004.8 hPa 4.2 m/s 0.0 mm 13.0° 1005.0 hPa 3.9 m/s
05:00 14.4° 1004.3 hPa 3.7 m/s 0.0 mm 12.0° 1002.9 hPa 4.2 m/s 10.5 mm 14.7° 1004.2 hPa 2.2 m/s 0.7 mm 13.8° 1004.6 hPa 3.7 m/s 0.0 mm 14.4° 1004.8 hPa 3.6 m/s
08:00 14.9° 1004.1 hPa 3.0 m/s 0.0 mm 15.1° 1002.7 hPa 5.2 m/s 10.5 mm 15.4° 1004.0 hPa 2.6 m/s 0.5 mm 14.4° 1004.8 hPa 4.1 m/s 0.0 mm 14.9° 1004.5 hPa 3.4 m/s
11:00 18.2° 1003.3 hPa 3.1 m/s 1.4 mm 19.0° 1002.4 hPa 5.2 m/s 10.5 mm 18.9° 1003.4 hPa 3.4 m/s 0.0 mm 18.2° 1003.9 hPa 4.6 m/s
14:00 21.0° 1001.7 hPa 4.2 m/s 1.4 mm 21.2° 1001.1 hPa 5.1 m/s 10.5 mm 21.4° 1002.3 hPa 3.5 m/s 0.0 mm 19.9° 1002.9 hPa 4.6 m/s
17:00 20.6° 1001.0 hPa 4.0 m/s 3.7 mm 21.9° 1000.4 hPa 3.4 m/s 10.9 mm 20.5° 1001.3 hPa 3.8 m/s 0.7 mm 19.9° 1002.5 hPa 5.9 m/s
20:00 18.5° 1001.1 hPa 3.6 m/s 3.1 mm 20.8° 999.7 hPa 2.8 m/s 11.3 mm 18.2° 1001.3 hPa 3.6 m/s 0.5 mm 17.7° 1002.1 hPa 4.9 m/s
23:00 16.5° 1001.4 hPa 4.3 m/s 4.2 mm 18.5° 999.9 hPa 4.3 m/s 11.6 mm 16.1° 1001.4 hPa 3.4 m/s 1.2 mm 15.0° 1002.7 hPa 5.3 m/s
 06:14     21:14    Daglengte: 15:00 Zondag 08 Aug
02:00 15.6° 1001.7 hPa 4.9 m/s 1.9 mm 16.1° 1000.0 hPa 3.4 m/s 12.7 mm 15.7° 1001.8 hPa 4.4 m/s 0.9 mm 13.9° 1003.2 hPa 5.2 m/s
05:00 14.7° 1001.6 hPa 5.8 m/s 5.5 mm 13.1° 1000.5 hPa 4.5 m/s 13.5 mm 15.2° 1001.3 hPa 5.4 m/s 0.1 mm 12.8° 1003.6 hPa 6.2 m/s
08:00 15.2° 1002.9 hPa 7.0 m/s 4.7 mm 15.3° 1001.0 hPa 6.1 m/s 13.8 mm 15.5° 1002.7 hPa 6.8 m/s 0.1 mm 13.8° 1004.5 hPa 7.2 m/s
11:00 17.3° 1005.3 hPa 7.2 m/s 0.0 mm 17.6° 1005.3 hPa 7.3 m/s 0.0 mm 15.4° 1005.6 hPa 6.6 m/s 14.0 mm
14:00 19.7° 1006.7 hPa 8.5 m/s 3.1 mm 20.0° 1006.5 hPa 8.6 m/s 0.2 mm 17.7° 1007.8 hPa 7.2 m/s 14.9 mm
17:00 19.3° 1009.5 hPa 7.7 m/s 16.4 mm 19.3° 1009.5 hPa 7.7 m/s 16.4 mm
20:00 18.1° 1011.3 hPa 6.3 m/s 16.5 mm 18.1° 1011.3 hPa 6.3 m/s 16.5 mm
23:00 15.3° 1013.1 hPa 5.7 m/s 16.5 mm 15.3° 1013.1 hPa 5.7 m/s 16.5 mm
 06:16     21:12    Daglengte: 14:56 Maandag 09 Aug
02:00 13.6° 1013.5 hPa 5.2 m/s 16.5 mm 13.6° 1013.5 hPa 5.2 m/s 16.5 mm
05:00 14.7° 1013.3 hPa 5.8 m/s 16.5 mm 14.7° 1013.3 hPa 5.8 m/s 16.5 mm
08:00 14.2° 1013.8 hPa 6.3 m/s 16.6 mm 14.2° 1013.8 hPa 6.3 m/s 16.6 mm
11:00 17.4° 1014.8 hPa 7.6 m/s 17.1 mm 17.4° 1014.8 hPa 7.6 m/s 17.1 mm
14:00 18.5° 1016.0 hPa 6.6 m/s 18.3 mm 18.5° 1016.0 hPa 6.6 m/s 18.3 mm
17:00 19.5° 1016.7 hPa 5.8 m/s 19.3 mm 19.5° 1016.7 hPa 5.8 m/s 19.3 mm
20:00 17.4° 1017.7 hPa 3.8 m/s 20.3 mm 17.4° 1017.7 hPa 3.8 m/s 20.3 mm
23:00 13.6° 1019.0 hPa 3.4 m/s 20.3 mm 13.6° 1019.0 hPa 3.4 m/s 20.3 mm
 06:17     21:10    Daglengte: 14:53 Dinsdag 10 Aug
02:00 13.1° 1019.6 hPa 3.6 m/s 20.3 mm 13.1° 1019.6 hPa 3.6 m/s 20.3 mm
05:00 12.7° 1019.4 hPa 3.4 m/s 20.3 mm 12.7° 1019.4 hPa 3.4 m/s 20.3 mm
08:00 13.9° 1020.6 hPa 2.9 m/s 20.3 mm 13.9° 1020.6 hPa 2.9 m/s 20.3 mm
11:00 19.5° 1021.1 hPa 3.0 m/s 20.4 mm 19.5° 1021.1 hPa 3.0 m/s 20.4 mm
14:00 22.3° 1020.7 hPa 3.1 m/s 20.4 mm 22.3° 1020.7 hPa 3.1 m/s 20.4 mm
17:00 20.8° 1020.4 hPa 2.4 m/s 20.4 mm 20.8° 1020.4 hPa 2.4 m/s 20.4 mm
20:00 18.7° 1020.2 hPa 2.6 m/s 20.4 mm 18.7° 1020.2 hPa 2.6 m/s 20.4 mm
23:00 15.1° 1020.7 hPa 1.5 m/s 20.4 mm 15.1° 1020.7 hPa 1.5 m/s 20.4 mm
 06:19     21:08    Daglengte: 14:49 Woensdag 11 Aug
02:00 13.8° 1020.3 hPa 0.3 m/s 20.4 mm 13.8° 1020.3 hPa 0.3 m/s 20.4 mm
05:00 12.8° 1019.2 hPa 0.7 m/s 20.4 mm 12.8° 1019.2 hPa 0.7 m/s 20.4 mm
08:00 15.2° 1019.0 hPa 0.6 m/s 20.4 mm 15.2° 1019.0 hPa 0.6 m/s 20.4 mm
11:00 20.2° 1018.5 hPa 1.3 m/s 20.4 mm 20.2° 1018.5 hPa 1.3 m/s 20.4 mm
14:00 23.2° 1017.2 hPa 1.4 m/s 20.4 mm 23.2° 1017.2 hPa 1.4 m/s 20.4 mm
17:00 23.7° 1015.9 hPa 1.3 m/s 20.4 mm 23.7° 1015.9 hPa 1.3 m/s 20.4 mm
20:00 21.0° 1015.3 hPa 0.7 m/s 20.4 mm 21.0° 1015.3 hPa 0.7 m/s 20.4 mm
23:00 20.3° 1014.8 hPa 2.3 m/s 20.4 mm 20.3° 1014.8 hPa 2.3 m/s 20.4 mm
 06:20     21:06    Daglengte: 14:46 Donderdag 12 Aug
02:00 18.6° 1014.0 hPa 3.1 m/s 20.4 mm 18.6° 1014.0 hPa 3.1 m/s 20.4 mm
05:00 15.9° 1013.6 hPa 2.2 m/s 23.7 mm 15.9° 1013.6 hPa 2.2 m/s 23.7 mm
08:00 16.0° 1013.5 hPa 2.4 m/s 33.3 mm 16.0° 1013.5 hPa 2.4 m/s 33.3 mm
11:00 18.4° 1014.8 hPa 3.3 m/s 34.2 mm 18.4° 1014.8 hPa 3.3 m/s 34.2 mm
14:00 19.5° 1015.4 hPa 5.4 m/s 36.3 mm 19.5° 1015.4 hPa 5.4 m/s 36.3 mm
20:00 18.3° 1018.2 hPa 4.8 m/s 40.6 mm 18.3° 1018.2 hPa 4.8 m/s 40.6 mm
 06:22     21:04    Daglengte: 14:42 Vrijdag 13 Aug
02:00 13.8° 1021.6 hPa 3.0 m/s 40.6 mm 13.8° 1021.6 hPa 3.0 m/s 40.6 mm
08:00 14.9° 1023.1 hPa 3.1 m/s 40.6 mm 14.9° 1023.1 hPa 3.1 m/s 40.6 mm
14:00 22.0° 1023.7 hPa 4.4 m/s 40.6 mm 22.0° 1023.7 hPa 4.4 m/s 40.6 mm
20:00 18.6° 1023.5 hPa 2.9 m/s 40.6 mm 18.6° 1023.5 hPa 2.9 m/s 40.6 mm
 06:24     21:02    Daglengte: 14:38 Zaterdag 14 Aug
02:00 13.0° 1024.1 hPa 0.9 m/s 40.6 mm 13.0° 1024.1 hPa 0.9 m/s 40.6 mm
08:00 14.5° 1023.5 hPa 2.2 m/s 40.6 mm 14.5° 1023.5 hPa 2.2 m/s 40.6 mm
14:00 23.3° 1022.1 hPa 3.2 m/s 40.6 mm 23.3° 1022.1 hPa 3.2 m/s 40.6 mm
20:00 21.1° 1020.7 hPa 1.9 m/s 40.6 mm 21.1° 1020.7 hPa 1.9 m/s 40.6 mm
 06:25     21:00    Daglengte: 14:35 Zondag 15 Aug
02:00 15.1° 1020.4 hPa 1.3 m/s 40.6 mm 15.1° 1020.4 hPa 1.3 m/s 40.6 mm
08:00 16.5° 1018.9 hPa 1.8 m/s 40.6 mm 16.5° 1018.9 hPa 1.8 m/s 40.6 mm
14:00 20.7° 1013.7 hPa 3.5 m/s 0.4 mm
20:00 18.8° 1013.3 hPa 2.2 m/s 0.9 mm
 06:27     20:58    Daglengte: 14:31 Maandag 16 Aug
02:00 14.8° 1013.6 hPa 1.9 m/s 0.4 mm
08:00 15.0° 1013.2 hPa 2.8 m/s 0.4 mm
14:00 21.2° 1014.0 hPa 4.2 m/s 0.6 mm
20:00 18.8° 1014.7 hPa 2.7 m/s 0.9 mm
 06:28     20:56    Daglengte: 14:28 Dinsdag 17 Aug
02:00 14.3° 1015.6 hPa 2.2 m/s 0.6 mm
08:00 15.0° 1015.7 hPa 2.9 m/s 0.2 mm
14:00 21.3° 1016.0 hPa 3.9 m/s 0.0 mm
20:00 19.1° 1015.9 hPa 2.2 m/s 0.8 mm
 06:30     20:54    Daglengte: 14:24 Woensdag 18 Aug
02:00 15.1° 1016.2 hPa 2.0 m/s 0.5 mm
08:00 15.7° 1015.8 hPa 2.6 m/s 0.6 mm
14:00 21.8° 1015.7 hPa 3.4 m/s 0.8 mm
20:00 19.2° 1015.5 hPa 2.1 m/s 0.1 mm
 06:32     20:52    Daglengte: 14:20 Donderdag 19 Aug
02:00 15.1° 1016.1 hPa 1.6 m/s 1.4 mm
08:00 15.5° 1015.6 hPa 1.8 m/s 1.5 mm
14:00 21.3° 1015.2 hPa 2.5 m/s 1.1 mm
20:00 19.1° 1015.0 hPa 2.1 m/s 1.4 mm
 06:33     20:50    Daglengte: 14:17 Vrijdag 20 Aug
02:00 14.5° 1015.3 hPa 1.3 m/s 0.2 mm
08:00 14.9° 1015.0 hPa 1.6 m/s 0.6 mm
14:00 20.8° 1014.9 hPa 2.5 m/s 0.8 mm
FMI Hirlam - 7.5 km EWN WRFDA - 12 km DWD ICON - 7 km GFS - 25 km Basiskaart






























































Updatetijd (Europe/Brussels) Resolutie Lengte Stap
FMI Hirlam 14:00, 20:00, 02:00, 08:00 7.5 km 49h 1h
EWN WRFDA 04:15, 10:15, 16:15, 22:15 12 km 73h 1h
DWD ICON 11:45, 17:45, 23:45, 05:45 7 km 75h 1h
GFS 14:15, 20:15, 02:15, 08:15 25 km 237h 3h
30+ mm
25-30 mm
20-25 mm
15-20 mm
10-15 mm
6-10 mm
4-6 mm
2-4 mm
1-2 mm
0.5-1 mm
0.2-0.5 mm
0.1-0.2 mm
30+ mm
25-30 mm
20-25 mm
15-20 mm
10-15 mm
6-10 mm
4-6 mm
2-4 mm
1-2 mm
0.5-1 mm
0.2-0.5 mm
0.1-0.2 mm
Sneeuwval
Natte sneeuw
Hagel
Vorst
30+ mm
25-30 mm
20-25 mm
15-20 mm
10-15 mm
6-10 mm
4-6 mm
2-4 mm
1-2 mm
0.5-1 mm
0.2-0.5 mm
0.1-0.2 mm
Sneeuwval
Natte sneeuw
Hagel
Vorst
Onweer
50 mm
40 mm
30 mm
26 mm
22 mm
18 mm
14 mm
10 mm
9 mm
8 mm
7 mm
6 mm
5 mm
4.5 mm
4 mm
3.5 mm
3 mm
2.5 mm
2 mm
1.5 mm
1 mm
0.8 mm
0.6 mm
0.4 mm
0.2 mm
0.05 mm
35°
30°
25°
20°
15°
10°
-5°
-10°
-15°
-20°
-25°
-30°
-35°
33> m/s
29 m/s
25 m/s
21 m/s
17 m/s
14 m/s
11 m/s
8 m/s
5 m/s
3 m/s
0 m/s
2600 J/kg
2400 J/kg
2200 J/kg
2000 J/kg
1800 J/kg
1600 J/kg
1400 J/kg
1200 J/kg
1000 J/kg
800 J/kg
600 J/kg
400 J/kg
200 J/kg
70 dBZ
65 dBZ
60 dBZ
55 dBZ
50 dBZ
45 dBZ
40 dBZ
35 dBZ
30 dBZ
25 dBZ
20 dBZ
15 dBZ
10 dBZ
5 dBZ
-1 K
-2 K
-3 K
-4 K
-5 K
-6 K
-7 K
-8 K
-9 K
950 m²/s²
900 m²/s²
850 m²/s²
800 m²/s²
750 m²/s²
700 m²/s²
650 m²/s²
600 m²/s²
550 m²/s²
500 m²/s²
450 m²/s²
400 m²/s²
350 m²/s²
300 m²/s²
250 m²/s²
200 m²/s²
150 m²/s²
100 m²/s²
46 m/s
44 m/s
42 m/s
40 m/s
38 m/s
36 m/s
34 m/s
32 m/s
30 m/s
28 m/s
26 m/s
24 m/s
22 m/s
20 m/s
16 m/s
12 m/s
8 m/s
4 m/s
30 m/s
28 m/s
26 m/s
24 m/s
22 m/s
20 m/s
18 m/s
16 m/s
14 m/s
12 m/s
10 m/s
8 m/s
6 m/s
4 m/s
2 m/s
3.0
2.8
2.6
2.4
2.2
2.0
1.8
1.6
1.4
1.2
1.0
0.8
0.6
0.4
0.2
15
14
13
12
11
10
9
8
7
6
5
4
3
2
1
90%
80%
70%
60%
50%
40%
30%
20%
10%
42
40
38
36
34
32
30
28
26
24
22
20
18
16
14
12
90+ cm
80-90 cm
70-80 cm
60-70 cm
50-60 cm
40-50 cm
30-40 cm
20-30 cm
10-20 cm
1-10 cm
Sneeuwval
Natte sneeuw
Regen
>120 mm
115 mm
110 mm
105 mm
100 mm
95 mm
90 mm
85 mm
80 mm
75 mm
70 mm
65 mm
60 mm
55 mm
50 mm
45 mm
45 mm
40 mm
35 mm
30 mm
25 mm
20 mm
15 mm
10 mm
5 mm
0.1 mm
960 hPa
880 hPa
800 hPa
720 hPa
640 hPa
560 hPa
584 gpdm
568 gpdm
552 gpdm
536 gpdm
520 gpdm
504 gpdm
488 gpdm
Extreem zwaar Noodweer Kans op onweer
15% 15% 5% 50% 15%

Dag




Kaart






35°
30°